SCP
0 0 0 0 0 0 0 0 0 0 0 0 0 0 0 0 0 0 0 0 0 0 -0 -0 0 0 0 0 0 0 0 0 0 0 0 0 0 0 0 0 0 0 0
0 0 0 0 0 0 0 0 0 0 0 0 0 0 0 0 0 0 0 0 -0 -0 -0 0 0 0 0 0 0 0 0 0 0 0 0 0 0 0 0 0 0 0 0
0 0 0 0 0 0 0 0 0 0 0 0 0 0 0 0 0 0 0 0 0 -0 -0 -0 0 0 0 0 0 0 0 0 0 0 0 0 0 0 0 0 0 0 0
0 0 0 0 0 0 0 0 0 0 0 0 0 0 0 0 0 -0 0 0 0 -0 0 0 0 0 0 0 0 0 0 0 0 0 0 0 0 0 0 0 0 0 0
0 0 0 0 0 0 0 0 0 0 0 0 0 0 0 0 0 -0 -0 -0 0 0 0 0 0 0 0 0 0 0 0 0 0 0 0 0 0 0 0 0 0 0 0
0 0 0 0 0 0 0 0 0 0 0 0 0 0 0 0 0 -0 -0 -0 0 0 0 0 0 0 0 0 0 0 0 0 0 0 0 0 0 0 0 0 0 0 0
0 0 0 0 0 0 0 0 0 0 0 0 0 0 0 0 0 -0 -0 0 0 0 0 0 0 0 0 0 0 0 0 0 0 0 0 0 0 0 0 0 0 0 0
0 0 0 0 0 0 0 0 0 0 0 0 0 0 0 0 0 0 0 0 0 0 0 0 0 0 0 0 0 0 0 0 0 0 0 0 0 0 0 0 0 0 0
0 0 0 0 0 0 0 0 0 -0 -0 0 -0 0 0 0 0 0 0 0 0 0 0 0 0 0 0 0 0 0 0 0 0 0 0 0 0 0 0 0 0 0 0
0 0 0 0 0 0 0 0 -0 0 -0 0 0 0 0 0 0 0 0 0 0 0 0 0 0 0 0 0 0 0 0 0 0 0 0 0 0 0 0 0 0 0 0
0 0 0 0 0 0 0 0 0 0 0 0 0 0 0 0 0 0 0 0 0 0 0 0 0 0 0 0 0 0 0 0 0 0 0 0 0 0 0 0 0 0 0
0 0 0 0 0 0 0 0 0 -0 -0 0 0 0 0 0 0 0 0 0 0 0 0 0 0 0 0 0 0 0 0 0 0 0 0 0 0 0 0 0 0 0 0
0 0 0 0 0 0 0 0 0 0 -0 0 -0 0 0 0 0 0 0 0 0 0 0 0 0 0 0 0 0 0 0 0 0 0 0 0 0 0 0 0 0 0 0
0 0 0 0 0 0 0 0 0 0 0 0 -0 0 0 0 0 0 0 0 0 0 0 0 0 0 0 0 0 0 0 0 0 0 0 0 0 0 0 0 0 0 0
0 0 0 0 0 0 0 0 0 0 0 0 0 0 0 0 0 0 0 0 0 0 0 0 0 0 0 0 0 0 0 0 0 0 0 0 0 0 0 0 0 0 0
0 0 0 0 0 0 0 0 0 0 0 0 0 0 0 0 0 0 0 0 0 0 0 0 0 0 0 0 0 0 0 0 0 0 0 0 0 0 0 0 0 0 0
0 0 0 0 0 0 0 0 0 0 0 0 0 0 0 0 0 0 0 0 0 0 0 0 0 0 0 0 0 0 0 0 0 0 0 0 0 0 0 0 0 0 0
0 0 0 0 0 0 0 0 0 0 0 0 0 0 0 0 0 0 0 0 0 0 0 0 0 0 0 0 0 0 0 0 0 0 0 0 0 0 0 0 0 0 0
0 0 0 0 0 0 0 0 0 0 0 0 0 0 0 0 0 0 0 0 0 0 0 0 0 0 0 0 0 0 0 0 0 0 0 0 0 0 0 0 0 0 0
0 0 0 0 0 0 0 0 0 0 0 0 0 0 0 0 0 0 0 0 0 0 0 0 0 0 0 0 0 0 0 0 0 0 0 0 0 0 0 0 0 0 0
0 0 0 0 0 0 0 0 0 0 0 0 0 0 0 0 0 0 0 0 0 0 0 0 0 0 0 0 0 0 0 0 0 0 0 0 0 0 0 0 0 0 0
0 0 0 0 0 0 0 0 0 0 0 0 0 0 0 0 0 0 0 0 0 0 0 0 0 0 0 0 0 0 0 0 0 0 0 0 0 0 0 0 0 0 0
0 0 0 0 0 0 0 0 0 0 0 0 0 0 0 0 0 0 0 0 0 0 0 0 0 0 0 0 0 0 0 0 0 0 0 0 0 0 0 0 0 0 0
0 0 0 0 0 0 0 0 0 0 0 0 0 0 0 0 0 0 0 0 0 0 0 0 0 0 0 0 0 0 0 0 0 0 0 0 0 0 0 0 0 0 0
0 0 0 0 0 0 0 0 0 0 0 0 0 0 0 0 0 0 0 0 0 0 0 0 0 0 0 0 0 0 0 0 0 0 0 0 0 0 0 0 0 0 0
0 0 0 0 0 0 0 0 0 0 0 0 0 0 0 0 0 0 0 0 0 0 0 0 0 0 0 0 0 0 0 0 0 0 0 0 0 0 0 0 0 0 0
Wind_Speed_500mb
46 50 52 53 48 41 25 21 19 22 23 23 27 24 28 31 30 30 31 27 28 35 37 34 32 29 31 32 32 36 30 32 35 38 36 38 39 41 37 37 35 32 37
44 49 52 54 50 38 26 16 13 20 21 19 21 22 27 28 27 29 26 26 24 26 29 35 29 31 29 31 31 29 31 32 34 35 35 38 37 39 35 38 40 38 38
41 49 55 54 48 40 29 17 19 26 22 22 19 25 24 24 25 27 26 27 26 27 27 30 31 31 30 29 27 29 31 29 34 34 34 38 33 35 36 38 38 38 39
39 49 59 53 48 38 26 22 22 31 25 23 26 28 24 23 21 21 23 25 27 28 26 28 29 26 30 30 20 26 28 29 31 33 34 41 36 38 38 37 36 38 40
41 50 58 55 48 39 31 26 27 27 32 30 31 31 26 19 19 22 21 24 26 26 25 27 27 26 26 28 19 24 26 27 30 31 31 31 29 28 31 35 36 35 36
47 52 58 51 49 46 36 34 30 33 32 37 39 33 30 23 20 21 19 19 24 26 26 25 24 25 23 22 21 21 22 25 27 28 30 29 33 32 30 32 29 35 37
53 53 59 54 50 48 43 36 36 38 43 44 47 41 31 21 15 14 15 17 21 23 24 24 24 24 23 18 16 22 23 24 24 26 29 31 31 30 32 29 30 34 36
56 53 56 62 55 56 51 42 41 49 49 48 45 42 25 20 14 6 4 9 17 19 22 23 24 24 24 20 17 16 16 19 22 23 26 26 28 28 29 29 32 32 35
56 54 53 54 56 59 54 46 43 50 57 50 38 15 20 13 25 15 9 4 8 14 18 18 20 20 23 21 18 17 17 17 16 20 22 23 22 24 26 28 31 34 34
60 56 55 55 54 58 56 44 42 44 51 52 48 18 10 8 20 19 21 16 11 8 11 15 18 22 23 21 17 16 16 16 15 16 17 19 20 22 25 28 29 30 31
59 59 57 57 56 55 48 46 44 43 48 42 46 29 18 15 16 13 23 29 24 15 7 8 12 16 21 20 18 16 14 13 16 18 18 17 18 20 22 24 26 28 29
65 61 60 58 51 49 46 43 39 37 39 37 36 29 21 23 24 14 11 25 23 19 14 10 9 11 16 19 17 13 11 12 14 14 16 16 17 19 21 23 25 27 28
74 71 67 64 55 53 47 39 38 39 38 43 46 30 23 20 19 20 20 22 31 27 25 18 13 10 12 15 15 13 10 11 11 12 14 14 15 17 19 20 22 23 25
72 71 72 63 57 58 53 46 42 41 40 43 44 40 34 31 29 28 28 25 28 29 27 20 16 15 11 11 12 10 11 7 8 10 11 12 13 14 16 17 18 19 22
68 68 69 64 60 59 54 49 49 51 48 46 46 41 39 35 32 28 28 32 32 31 30 28 22 15 14 12 9 8 7 5 7 7 9 10 11 12 13 14 15 16 18
69 71 67 62 62 60 55 53 50 52 54 53 53 48 43 40 38 38 38 40 38 37 27 23 20 18 16 16 13 8 6 4 5 5 7 7 8 9 11 13 14 14 14
69 70 67 65 66 64 57 55 51 55 59 57 56 51 44 42 40 40 39 36 36 39 31 25 24 23 23 20 15 12 10 7 4 4 5 8 7 7 7 10 13 13 13
71 69 65 67 68 65 59 58 53 54 62 60 55 53 50 49 48 47 45 38 36 40 35 33 33 31 27 22 19 15 13 11 10 8 7 8 10 11 11 10 12 15 17
72 68 66 68 68 65 61 61 54 49 57 57 56 55 53 50 49 47 45 41 39 42 40 40 37 32 29 27 22 20 18 16 15 16 15 14 16 17 18 16 16 17 19
72 68 68 67 66 62 62 60 56 52 53 52 50 48 49 46 43 42 42 41 39 39 38 36 34 30 29 26 26 24 23 21 20 21 21 22 23 23 23 22 20 20 19
69 67 67 67 65 65 64 63 58 54 54 53 51 50 48 42 39 39 39 40 40 39 39 37 35 33 33 30 24 21 23 24 25 27 28 28 27 26 24 26 27 28 25
69 69 69 67 68 68 64 60 55 55 55 55 52 50 47 43 42 42 39 40 37 36 36 36 35 32 28 25 24 23 23 25 31 26 29 28 31 28 28 29 30 34 30
70 71 69 65 67 65 61 60 58 57 55 53 50 48 47 45 45 44 42 41 41 38 36 33 32 27 25 19 21 24 25 26 28 32 36 37 33 34 33 34 35 36 35
73 72 68 67 65 61 61 60 58 56 53 51 47 46 45 44 44 44 43 43 44 41 39 36 31 27 26 26 26 24 27 29 31 34 34 45 35 37 36 37 37 38 39
76 74 69 67 64 62 59 58 58 57 54 53 49 47 47 46 44 44 45 44 46 44 41 38 35 34 32 32 31 32 33 34 35 37 36 43 42 36 37 38 39 39 39
78 73 70 67 63 60 58 57 58 57 56 54 52 50 51 48 47 47 47 46 50 44 41 39 39 38 37 36 36 34 34 38 38 40 30 34 34 32 30 30 20 20 29
Wind_Direction_500mb
164 163 163 162 162 161 157 142 130 122 119 111 99 111 106 103 103 102 100 94 95 94 85 73 71 71 70 70 72 73 61 61 57 62 60 62 58 50 50 55 51 45 41
164 166 166 166 168 163 162 159 148 152 141 125 108 122 115 102 101 95 91 92 82 77 80 84 83 75 65 65 66 67 64 65 66 62 59 60 56 50 51 49 45 40 34
172 171 171 174 174 170 160 163 167 172 161 141 126 132 119 105 92 85 79 75 74 70 70 73 92 82 74 61 59 59 59 58 66 61 58 66 57 43 52 44 43 38 38
179 177 177 179 182 176 175 172 183 181 170 153 140 133 119 107 86 74 76 74 70 66 68 66 63 73 84 79 49 58 58 60 65 62 61 63 55 49 47 44 42 39 39
185 184 185 183 188 186 185 181 186 193 172 157 142 127 114 98 77 70 72 69 66 61 62 60 54 54 70 88 73 60 59 61 65 62 62 59 57 50 43 43 44 37 32
188 188 189 192 195 195 193 186 191 181 180 159 139 127 116 106 90 66 57 53 55 56 54 53 52 50 54 79 85 73 69 65 67 66 61 59 56 51 48 43 39 43 39
189 192 191 199 202 198 195 193 186 180 172 162 148 132 123 118 101 75 52 36 37 43 45 46 49 48 45 52 66 79 72 68 68 65 64 61 60 56 48 46 42 38 37
191 190 196 199 200 199 194 194 197 180 174 174 163 141 141 152 157 153 71 23 17 24 31 30 38 39 38 38 41 35 51 75 69 64 65 59 58 57 49 46 43 41 37
195 195 198 204 201 200 200 198 197 190 177 176 178 160 152 177 176 193 208 263 339 7 18 22 30 32 33 32 32 32 36 40 64 72 64 60 61 60 55 48 42 37 34
202 199 202 202 201 202 203 200 195 199 191 178 180 178 167 174 175 183 212 231 265 313 356 9 18 21 22 24 26 28 34 35 43 49 54 58 54 56 52 45 41 38 35
201 201 204 203 203 202 206 201 196 198 200 194 187 180 193 202 206 202 198 212 228 245 275 333 4 11 11 16 25 23 27 40 42 39 41 40 47 52 50 46 42 39 37
202 204 203 204 205 204 201 202 203 202 202 206 191 192 207 206 205 220 220 208 218 235 241 271 299 348 1 8 20 21 27 42 42 43 45 43 43 43 41 34 34 37 35
204 203 201 202 207 208 206 207 212 211 205 209 206 217 219 230 244 244 248 226 213 229 233 242 258 294 336 355 3 15 24 30 37 39 43 40 42 41 38 31 30 32 34
210 204 201 202 208 209 213 216 220 217 212 213 212 219 224 228 240 244 249 254 230 237 245 247 253 263 293 331 347 2 5 3 38 39 38 36 37 35 34 27 26 29 34
214 207 205 203 205 207 211 214 218 218 215 213 211 214 223 226 234 240 249 264 260 251 257 252 249 256 268 298 316 330 344 8 51 47 34 29 26 29 28 21 17 20 29
212 209 207 208 204 206 208 212 217 217 216 212 214 220 225 231 238 248 262 267 264 255 259 252 257 259 265 277 282 288 294 328 40 57 34 23 21 22 25 20 9 4 13
207 207 207 209 206 209 210 215 218 213 215 217 221 228 232 238 244 253 262 260 249 245 255 264 263 254 255 258 261 266 267 276 306 9 8 5 3 359 350 1 1 357 350
206 205 207 207 206 210 215 218 216 215 218 222 226 230 235 241 248 256 259 257 243 243 256 264 272 258 252 250 243 244 249 256 260 268 301 327 331 331 329 318 334 347 344
205 205 207 208 210 214 218 220 221 220 222 227 232 236 242 245 249 252 253 250 241 243 254 261 264 259 245 246 249 247 242 250 257 261 268 289 305 304 309 315 318 324 330
204 206 209 212 216 220 223 222 223 221 224 228 233 235 240 245 248 246 244 243 242 243 246 247 250 250 244 247 249 251 254 258 262 267 269 273 285 292 293 296 300 306 316
203 208 212 215 220 223 223 223 223 224 226 229 233 236 239 242 238 237 236 238 238 239 240 240 243 243 241 244 257 260 258 260 264 266 268 270 275 285 286 284 286 293 302
204 209 213 217 219 220 222 225 228 228 229 232 233 235 233 230 228 230 231 233 236 242 243 243 243 248 248 247 249 257 262 269 271 283 278 278 275 283 281 281 282 284 292
206 211 212 215 218 217 218 221 223 225 228 231 231 231 230 230 228 229 231 232 234 236 239 244 249 254 253 257 259 261 269 275 280 282 285 284 281 287 285 284 279 282 287
210 213 212 216 217 217 218 219 220 221 224 228 229 231 232 233 233 233 232 235 240 242 244 247 250 247 250 252 262 264 265 271 272 275 276 280 286 288 285 284 280 280 283
212 215 216 220 219 219 218 218 219 220 222 225 225 228 230 231 232 235 236 236 239 243 248 251 254 254 254 254 258 261 264 269 276 279 277 276 285 290 290 286 282 281 282
216 217 220 223 226 224 221 221 223 224 225 225 226 227 229 230 233 236 239 242 244 245 250 255 259 261 261 260 260 264 265 271 278 283 293 274 290 295 301 295 282 289 283
Wind_Speed_850mb
46 50 52 53 48 41 25 21 19 22 23 23 27 24 28 31 30 30 31 27 28 35 37 34 32 29 31 32 32 36 30 32 35 38 36 38 39 41 37 37 35 32 37
44 49 52 54 50 38 26 16 13 20 21 19 21 22 27 28 27 29 26 26 24 26 29 35 29 31 29 31 31 29 31 32 34 35 35 38 37 39 35 38 40 38 38
41 49 55 54 48 40 29 17 19 26 22 22 19 25 24 24 25 27 26 27 26 27 27 30 31 31 30 29 27 29 31 29 34 34 34 38 33 35 36 38 38 38 39
39 49 59 53 48 38 26 22 22 31 25 23 26 28 24 23 21 21 23 25 27 28 26 28 29 26 30 30 20 26 28 29 31 33 34 41 36 38 38 37 36 38 40
41 50 58 55 48 39 31 26 27 27 32 30 31 31 26 19 19 22 21 24 26 26 25 27 27 26 26 28 19 24 26 27 30 31 31 31 29 28 31 35 36 35 36
47 52 58 51 49 46 36 34 30 33 32 37 39 33 30 23 20 21 19 19 24 26 26 25 24 25 23 22 21 21 22 25 27 28 30 29 33 32 30 32 29 35 37
53 53 59 54 50 48 43 36 36 38 43 44 47 41 31 21 15 14 15 17 21 23 24 24 24 24 23 18 16 22 23 24 24 26 29 31 31 30 32 29 30 34 36
56 53 56 62 55 56 51 42 41 49 49 48 45 42 25 20 14 6 4 9 17 19 22 23 24 24 24 20 17 16 16 19 22 23 26 26 28 28 29 29 32 32 35
56 54 53 54 56 59 54 46 43 50 57 50 38 15 20 13 25 15 9 4 8 14 18 18 20 20 23 21 18 17 17 17 16 20 22 23 22 24 26 28 31 34 34
60 56 55 55 54 58 56 44 42 44 51 52 48 18 10 8 20 19 21 16 11 8 11 15 18 22 23 21 17 16 16 16 15 16 17 19 20 22 25 28 29 30 31
59 59 57 57 56 55 48 46 44 43 48 42 46 29 18 15 16 13 23 29 24 15 7 8 12 16 21 20 18 16 14 13 16 18 18 17 18 20 22 24 26 28 29
65 61 60 58 51 49 46 43 39 37 39 37 36 29 21 23 24 14 11 25 23 19 14 10 9 11 16 19 17 13 11 12 14 14 16 16 17 19 21 23 25 27 28
74 71 67 64 55 53 47 39 38 39 38 43 46 30 23 20 19 20 20 22 31 27 25 18 13 10 12 15 15 13 10 11 11 12 14 14 15 17 19 20 22 23 25
72 71 72 63 57 58 53 46 42 41 40 43 44 40 34 31 29 28 28 25 28 29 27 20 16 15 11 11 12 10 11 7 8 10 11 12 13 14 16 17 18 19 22
68 68 69 64 60 59 54 49 49 51 48 46 46 41 39 35 32 28 28 32 32 31 30 28 22 15 14 12 9 8 7 5 7 7 9 10 11 12 13 14 15 16 18
69 71 67 62 62 60 55 53 50 52 54 53 53 48 43 40 38 38 38 40 38 37 27 23 20 18 16 16 13 8 6 4 5 5 7 7 8 9 11 13 14 14 14
69 70 67 65 66 64 57 55 51 55 59 57 56 51 44 42 40 40 39 36 36 39 31 25 24 23 23 20 15 12 10 7 4 4 5 8 7 7 7 10 13 13 13
71 69 65 67 68 65 59 58 53 54 62 60 55 53 50 49 48 47 45 38 36 40 35 33 33 31 27 22 19 15 13 11 10 8 7 8 10 11 11 10 12 15 17
72 68 66 68 68 65 61 61 54 49 57 57 56 55 53 50 49 47 45 41 39 42 40 40 37 32 29 27 22 20 18 16 15 16 15 14 16 17 18 16 16 17 19
72 68 68 67 66 62 62 60 56 52 53 52 50 48 49 46 43 42 42 41 39 39 38 36 34 30 29 26 26 24 23 21 20 21 21 22 23 23 23 22 20 20 19
69 67 67 67 65 65 64 63 58 54 54 53 51 50 48 42 39 39 39 40 40 39 39 37 35 33 33 30 24 21 23 24 25 27 28 28 27 26 24 26 27 28 25
69 69 69 67 68 68 64 60 55 55 55 55 52 50 47 43 42 42 39 40 37 36 36 36 35 32 28 25 24 23 23 25 31 26 29 28 31 28 28 29 30 34 30
70 71 69 65 67 65 61 60 58 57 55 53 50 48 47 45 45 44 42 41 41 38 36 33 32 27 25 19 21 24 25 26 28 32 36 37 33 34 33 34 35 36 35
73 72 68 67 65 61 61 60 58 56 53 51 47 46 45 44 44 44 43 43 44 41 39 36 31 27 26 26 26 24 27 29 31 34 34 45 35 37 36 37 37 38 39
76 74 69 67 64 62 59 58 58 57 54 53 49 47 47 46 44 44 45 44 46 44 41 38 35 34 32 32 31 32 33 34 35 37 36 43 42 36 37 38 39 39 39
78 73 70 67 63 60 58 57 58 57 56 54 52 50 51 48 47 47 47 46 50 44 41 39 39 38 37 36 36 34 34 38 38 40 30 34 34 32 30 30 20 20 29
Wind_Direction_850mb
164 163 163 162 162 161 157 142 130 122 119 111 99 111 106 103 103 102 100 94 95 94 85 73 71 71 70 70 72 73 61 61 57 62 60 62 58 50 50 55 51 45 41
164 166 166 166 168 163 162 159 148 152 141 125 108 122 115 102 101 95 91 92 82 77 80 84 83 75 65 65 66 67 64 65 66 62 59 60 56 50 51 49 45 40 34
172 171 171 174 174 170 160 163 167 172 161 141 126 132 119 105 92 85 79 75 74 70 70 73 92 82 74 61 59 59 59 58 66 61 58 66 57 43 52 44 43 38 38
179 177 177 179 182 176 175 172 183 181 170 153 140 133 119 107 86 74 76 74 70 66 68 66 63 73 84 79 49 58 58 60 65 62 61 63 55 49 47 44 42 39 39
185 184 185 183 188 186 185 181 186 193 172 157 142 127 114 98 77 70 72 69 66 61 62 60 54 54 70 88 73 60 59 61 65 62 62 59 57 50 43 43 44 37 32
188 188 189 192 195 195 193 186 191 181 180 159 139 127 116 106 90 66 57 53 55 56 54 53 52 50 54 79 85 73 69 65 67 66 61 59 56 51 48 43 39 43 39
189 192 191 199 202 198 195 193 186 180 172 162 148 132 123 118 101 75 52 36 37 43 45 46 49 48 45 52 66 79 72 68 68 65 64 61 60 56 48 46 42 38 37
191 190 196 199 200 199 194 194 197 180 174 174 163 141 141 152 157 153 71 23 17 24 31 30 38 39 38 38 41 35 51 75 69 64 65 59 58 57 49 46 43 41 37
195 195 198 204 201 200 200 198 197 190 177 176 178 160 152 177 176 193 208 263 339 7 18 22 30 32 33 32 32 32 36 40 64 72 64 60 61 60 55 48 42 37 34
202 199 202 202 201 202 203 200 195 199 191 178 180 178 167 174 175 183 212 231 265 313 356 9 18 21 22 24 26 28 34 35 43 49 54 58 54 56 52 45 41 38 35
201 201 204 203 203 202 206 201 196 198 200 194 187 180 193 202 206 202 198 212 228 245 275 333 4 11 11 16 25 23 27 40 42 39 41 40 47 52 50 46 42 39 37
202 204 203 204 205 204 201 202 203 202 202 206 191 192 207 206 205 220 220 208 218 235 241 271 299 348 1 8 20 21 27 42 42 43 45 43 43 43 41 34 34 37 35
204 203 201 202 207 208 206 207 212 211 205 209 206 217 219 230 244 244 248 226 213 229 233 242 258 294 336 355 3 15 24 30 37 39 43 40 42 41 38 31 30 32 34
210 204 201 202 208 209 213 216 220 217 212 213 212 219 224 228 240 244 249 254 230 237 245 247 253 263 293 331 347 2 5 3 38 39 38 36 37 35 34 27 26 29 34
214 207 205 203 205 207 211 214 218 218 215 213 211 214 223 226 234 240 249 264 260 251 257 252 249 256 268 298 316 330 344 8 51 47 34 29 26 29 28 21 17 20 29
212 209 207 208 204 206 208 212 217 217 216 212 214 220 225 231 238 248 262 267 264 255 259 252 257 259 265 277 282 288 294 328 40 57 34 23 21 22 25 20 9 4 13
207 207 207 209 206 209 210 215 218 213 215 217 221 228 232 238 244 253 262 260 249 245 255 264 263 254 255 258 261 266 267 276 306 9 8 5 3 359 350 1 1 357 350
206 205 207 207 206 210 215 218 216 215 218 222 226 230 235 241 248 256 259 257 243 243 256 264 272 258 252 250 243 244 249 256 260 268 301 327 331 331 329 318 334 347 344
205 205 207 208 210 214 218 220 221 220 222 227 232 236 242 245 249 252 253 250 241 243 254 261 264 259 245 246 249 247 242 250 257 261 268 289 305 304 309 315 318 324 330
204 206 209 212 216 220 223 222 223 221 224 228 233 235 240 245 248 246 244 243 242 243 246 247 250 250 244 247 249 251 254 258 262 267 269 273 285 292 293 296 300 306 316
203 208 212 215 220 223 223 223 223 224 226 229 233 236 239 242 238 237 236 238 238 239 240 240 243 243 241 244 257 260 258 260 264 266 268 270 275 285 286 284 286 293 302
204 209 213 217 219 220 222 225 228 228 229 232 233 235 233 230 228 230 231 233 236 242 243 243 243 248 248 247 249 257 262 269 271 283 278 278 275 283 281 281 282 284 292
206 211 212 215 218 217 218 221 223 225 228 231 231 231 230 230 228 229 231 232 234 236 239 244 249 254 253 257 259 261 269 275 280 282 285 284 281 287 285 284 279 282 287
210 213 212 216 217 217 218 219 220 221 224 228 229 231 232 233 233 233 232 235 240 242 244 247 250 247 250 252 262 264 265 271 272 275 276 280 286 288 285 284 280 280 283
212 215 216 220 219 219 218 218 219 220 222 225 225 228 230 231 232 235 236 236 239 243 248 251 254 254 254 254 258 261 264 269 276 279 277 276 285 290 290 286 282 281 282
216 217 220 223 226 224 221 221 223 224 225 225 226 227 229 230 233 236 239 242 244 245 250 255 259 261 261 260 260 264 265 271 278 283 293 274 290 295 301 295 282 289 283